Frederick, MD

2:13 PM EST on December 15, 2019 (GMT -0500)
Frederick Municipal

Weather History for KFDK - August, 2019

Change the Weather History Date:

Tuesday, August 27, 2019

  Actual Average (WUND) Record (WUND)
Temperature  
Mean Temperature 71 °F -  
Max Temperature 80 °F - - (-1)
Min Temperature 62 °F - - (-1)
Cooling Degree Days 6    
Growing Degree Days 21 (Base 50)    
Moisture  
Dew Point 63 °F    
Average Humidity 84    
Maximum Humidity 94    
Minimum Humidity 61    
Precipitation  
Precipitation 0.00 in - - ()
Sea Level Pressure  
Sea Level Pressure 30.08 in    
Wind  
Wind Speed 1 mph (SSE)    
Max Wind Speed 6 mph    
Max Gust Speed -    
Visibility 10 miles    
Events Rain    
Averages and records for this station are not official NWS values.
T = Trace of Precipitation, MM = Missing Value Source: NWS Daily Summary

Daily Weather History Graph

Daily Weather History Graph

Search for Another Location

Airport or City:

Astronomy

Aug. 27, 2019 Rise Set
Actual Time 6:33 AM EDT 7:48 PM EDT
Civil Twilight 6:05 AM EDT 8:16 PM EDT
Nautical Twilight 5:31 AM EDT 8:49 PM EDT
Astronomical Twilight 4:56 AM EDT 9:24 PM EDT
Moon 2:56 AM EDT (8/27) 6:06 PM EDT (8/27)
Length of Visible Light 14h 10m
Length of Day
13h 15m
Waning Crescent, 11% of the Moon is Illuminated
Aug 27
Waning Crescent
Aug 30
New
Sep 5
First Quarter
Sep 14
Full
Sep 21
Last Quarter

Hourly Weather History & Observations

Time (EDT) Temp. Heat Index Dew Point Humidity Pressure Visibility Wind Dir Wind Speed Gust Speed Precip Events Conditions
12:10 AM 64.4 °F - 60.8 °F 88% 30.16 in 10.0 mi Calm Calm - N/A   Overcast
12:30 AM 64.4 °F - 60.8 °F 88% 30.16 in 10.0 mi Calm Calm - N/A   Mostly Cloudy
12:50 AM 62.6 °F - 60.8 °F 94% 30.15 in 10.0 mi Calm Calm - N/A   Clear
1:10 AM 62.6 °F - 60.8 °F 94% 30.15 in 10.0 mi Calm Calm - N/A   Clear
1:30 AM 62.6 °F - 60.8 °F 94% 30.15 in 10.0 mi Calm Calm - N/A   Clear
1:50 AM 62.6 °F - 60.8 °F 94% 30.15 in 10.0 mi Calm Calm - N/A   Clear
2:10 AM 62.6 °F - 60.8 °F 94% 30.14 in 10.0 mi Calm Calm - N/A   Clear
2:50 AM 62.6 °F - 60.8 °F 94% 30.13 in 10.0 mi Calm Calm - N/A   Clear
3:30 AM 62.6 °F - 60.8 °F 94% 30.12 in 10.0 mi Calm Calm - N/A   Clear
3:50 AM 62.6 °F - 60.8 °F 94% 30.11 in 10.0 mi Calm Calm - N/A   Clear
4:10 AM 62.6 °F - 60.8 °F 94% 30.10 in 10.0 mi Calm Calm - N/A   Clear
4:30 AM 62.6 °F - 60.8 °F 94% 30.10 in 10.0 mi Calm Calm - N/A   Clear
4:50 AM 62.6 °F - 60.8 °F 94% 30.09 in 10.0 mi Calm Calm - N/A   Clear
5:10 AM 62.6 °F - 60.8 °F 94% 30.09 in 10.0 mi Calm Calm - N/A   Clear
5:30 AM 62.6 °F - 60.8 °F 94% 30.09 in 10.0 mi Calm Calm - N/A   Mostly Cloudy
5:50 AM 62.6 °F - 60.8 °F 94% 30.09 in 10.0 mi Calm Calm - N/A   Overcast
6:10 AM 62.6 °F - 60.8 °F 94% 30.10 in 10.0 mi Calm Calm - N/A   Overcast
6:30 AM 62.6 °F - 60.8 °F 94% 30.10 in 10.0 mi Calm Calm - N/A   Overcast
6:47 AM 64.4 °F - 60.8 °F 88% 30.11 in 10.0 mi Calm Calm - N/A   Light Drizzle
6:50 AM 62.6 °F - 60.8 °F 94% 30.10 in 10.0 mi Calm Calm - N/A Rain Light Rain
7:10 AM 62.6 °F - 60.8 °F 94% 30.11 in 10.0 mi Calm Calm - N/A   Clear
7:47 AM 64.4 °F - 62.6 °F 94% 30.11 in 7.0 mi Calm Calm - N/A   Mostly Cloudy
8:47 AM 66.2 °F - 62.6 °F 88% 30.11 in 10.0 mi Calm Calm - N/A   Overcast
9:47 AM 66.2 °F - 62.6 °F 88% 30.11 in 4.0 mi Calm Calm - N/A   Overcast
10:47 AM 71.6 °F - 64.4 °F 78% 30.09 in 7.0 mi South 3.5 mph - N/A   Overcast
11:47 AM 71.6 °F - 64.4 °F 78% 30.08 in 7.0 mi SSE 3.5 mph - N/A   Overcast
12:47 PM 73.4 °F - 64.4 °F 73% 30.07 in 10.0 mi Calm Calm - N/A   Overcast
1:47 PM 75.2 °F - 64.4 °F 69% 30.05 in 10.0 mi South 5.8 mph - N/A   Overcast
2:47 PM 77.0 °F - 64.4 °F 65% 30.03 in 10.0 mi South 3.5 mph - N/A   Overcast
3:47 PM 78.8 °F - 64.4 °F 61% 30.02 in 10.0 mi South 3.5 mph - N/A   Mostly Cloudy
4:47 PM 80.6 °F 82.7 °F 66.2 °F 61% 30.00 in 10.0 mi South 3.5 mph - N/A   Mostly Cloudy
5:47 PM 78.8 °F - 66.2 °F 65% 29.99 in 10.0 mi SSW 4.6 mph - N/A   Mostly Cloudy
6:47 PM 78.8 °F - 66.2 °F 65% 29.98 in 10.0 mi Calm Calm - N/A   Mostly Cloudy
7:47 PM 75.2 °F - 68.0 °F 78% 29.99 in 10.0 mi Calm Calm - N/A   Overcast
8:47 PM 75.2 °F - 66.2 °F 73% 30.00 in 10.0 mi ESE 4.6 mph - N/A   Overcast
9:30 PM 73.4 °F - 64.4 °F 73% 30.01 in 10.0 mi ESE 5.8 mph - N/A   Overcast
9:50 PM 73.4 °F - 64.4 °F 73% 30.01 in 10.0 mi SE 3.5 mph - N/A   Overcast
10:10 PM 73.4 °F - 64.4 °F 73% 30.01 in 10.0 mi SE 4.6 mph - N/A   Overcast
10:30 PM 73.4 °F - 64.4 °F 73% 30.01 in 10.0 mi SE 4.6 mph - N/A   Overcast
10:50 PM 73.4 °F - 64.4 °F 73% 30.01 in 10.0 mi SE 3.5 mph - N/A   Overcast
11:10 PM 71.6 °F - 64.4 °F 78% 30.01 in 10.0 mi SE 4.6 mph - N/A   Overcast
11:30 PM 71.6 °F - 64.4 °F 78% 30.01 in 10.0 mi SE 4.6 mph - N/A   Overcast